TimeMST,TemperatureF,Dew PointF,Humidity,Sea Level PressureIn,VisibilityMPH,Wind Direction,Wind SpeedMPH,Gust SpeedMPH,PrecipitationIn,Events,Conditions,WindDirDegrees,DateUTC
12:53 AM,36.0,17.1,46,30.08,10.0,WSW,23.0,-,N/A,,Clear,240,2013-01-18 07:53:00
1:53 AM,34.0,17.1,50,30.08,10.0,SW,19.6,-,N/A,,Clear,230,2013-01-18 08:53:00
2:53 AM,35.1,17.1,48,30.06,10.0,WSW,23.0,-,N/A,,Clear,250,2013-01-18 09:53:00
3:53 AM,35.1,17.1,48,30.05,10.0,WSW,18.4,-,N/A,,Clear,250,2013-01-18 10:53:00
4:53 AM,35.1,16.0,46,30.03,10.0,SW,21.9,28.8,N/A,,Clear,230,2013-01-18 11:53:00
5:53 AM,35.1,17.1,48,30.01,10.0,WSW,21.9,-,N/A,,Clear,240,2013-01-18 12:53:00
6:53 AM,34.0,16.0,48,30.03,10.0,WSW,19.6,-,N/A,,Clear,240,2013-01-18 13:53:00
7:53 AM,33.1,16.0,50,30.03,10.0,WSW,24.2,-,N/A,,Scattered Clouds,240,2013-01-18 14:53:00
8:53 AM,34.0,16.0,48,30.04,10.0,WSW,19.6,-,N/A,,Scattered Clouds,250,2013-01-18 15:53:00
9:53 AM,37.9,17.1,43,30.03,10.0,SW,21.9,-,N/A,,Scattered Clouds,230,2013-01-18 16:53:00
10:53 AM,39.9,18.0,41,30.00,10.0,WSW,20.7,-,N/A,,Mostly Cloudy,240,2013-01-18 17:53:00
11:53 AM,41.0,18.0,40,29.97,10.0,WSW,20.7,-,N/A,,Mostly Cloudy,240,2013-01-18 18:53:00
12:53 PM,46.0,19.9,35,29.93,10.0,WSW,18.4,-,N/A,,Scattered Clouds,240,2013-01-18 19:53:00
1:53 PM,55.0,16.0,22,29.89,10.0,West,26.5,34.5,N/A,,Scattered Clouds,270,2013-01-18 20:53:00
1:55 PM,55.0,16.0,22,29.88,10.0,West,29.9,38.0,N/A,,Scattered Clouds,270,2013-01-18 20:55:00
2:46 PM,46.0,19.0,34,29.89,10.0,SW,18.4,32.2,N/A,,Mostly Cloudy,230,2013-01-18 21:46:00
2:53 PM,45.0,19.0,36,29.93,10.0,SW,18.4,-,N/A,,Mostly Cloudy,230,2013-01-18 21:53:00
3:53 PM,43.0,19.9,40,29.94,10.0,WSW,15.0,-,N/A,,Scattered Clouds,240,2013-01-18 22:53:00
4:53 PM,46.0,17.1,31,29.94,10.0,WSW,13.8,-,N/A,,Scattered Clouds,250,2013-01-18 23:53:00
5:53 PM,46.0,19.0,34,29.94,10.0,West,10.4,-,N/A,,Mostly Cloudy,270,2013-01-19 00:53:00
6:53 PM,45.0,17.1,33,29.94,10.0,WSW,15.0,-,N/A,,Mostly Cloudy,240,2013-01-19 01:53:00
7:53 PM,45.0,18.0,34,29.97,10.0,West,11.5,-,N/A,,Mostly Cloudy,270,2013-01-19 02:53:00
8:53 PM,45.0,17.1,33,30.00,10.0,WNW,11.5,-,N/A,,Scattered Clouds,290,2013-01-19 03:53:00
9:53 PM,41.0,18.0,40,30.02,10.0,SW,9.2,-,N/A,,Clear,220,2013-01-19 04:53:00
10:53 PM,42.1,17.1,37,30.04,10.0,WNW,12.7,-,N/A,,Clear,290,2013-01-19 05:53:00
11:53 PM,42.1,16.0,35,30.04,10.0,West,13.8,-,N/A,,Clear,280,2013-01-19 06:53:00